Location: Namasale
(1.5000°N, 32.6167°E)
Time: 18:46:31
(UTC+00:00)

Ariane H10+ - Pass Details

Date: 09 April 2020
Orbit: 237 x 8328 km, 6.7° (Epoch: 27 May)

Event Time Altitude Azimuth Distance (km) Brightness Sun altitude
Rises 15:38:08 0° 271° (W) 10,997 10.6 3.4°
Reaches altitude 10° 15:49:41 10° 269° (W) 8,376 9.4 0.5°
Maximum altitude 16:12:21 60° 193° (SSW) 1,933 4.1 -5.1°
Drops below altitude 10° 16:18:36 10° 113° (ESE) 2,594 4.1 -6.6°
Enters shadow 16:19:05 - 111° (ESE) 2,749 4.2 -6.8°
